| time (UTC) | temp F | wind direction | speed MPH | gust MPH | rain 1hr in | rain 24hr in | rain mn in | humidity % | barometer mb |
| 20260509184204 | 94 | 191 | 7.0 | 13.0 | 0.00 | 0.00 | 0.00 | 50 | 1011.6 |
| 20260509183704 | 94 | 216 | 10.0 | 13.0 | 0.00 | 0.00 | 0.00 | 51 | 1012.2 |
| 20260509181705 | 94 | 208 | 7.0 | 13.0 | 0.00 | 0.00 | 0.00 | 51 | 1012.2 |
| 20260509181203 | 94 | 200 | 6.0 | 13.0 | 0.00 | 0.00 | 0.00 | 50 | 1012.2 |
| 20260509180704 | 94 | 179 | 6.0 | 9.0 | 0.00 | 0.00 | 0.00 | 50 | 1012.2 |
| 20260509174704 | 94 | 228 | 7.0 | 10.0 | 0.00 | 0.00 | 0.00 | 51 | 1012.2 |
| 20260509174205 | 93 | 243 | 6.0 | 10.0 | 0.00 | 0.00 | 0.00 | 51 | 1012.2 |
| 20260509173705 | 94 | 183 | 4.0 | 8.0 | 0.00 | 0.00 | 0.00 | 51 | 1012.2 |
| 20260509173203 | 93 | 204 | 5.0 | 12.0 | 0.00 | 0.00 | 0.00 | 51 | 1012.2 |
| 20260509171704 | 93 | 174 | 7.0 | 14.0 | 0.00 | 0.00 | 0.00 | 51 | 1012.2 |
| 20260509171204 | 93 | 224 | 8.0 | 10.0 | 0.00 | 0.00 | 0.00 | 51 | 1012.2 |
| 20260509170705 | 93 | 193 | 9.0 | 13.0 | 0.00 | 0.00 | 0.00 | 51 | 1012.2 |
| 20260509164705 | 93 | 194 | 9.0 | 12.0 | 0.00 | 0.00 | 0.00 | 51 | 1013.2 |
| 20260509164204 | 93 | 219 | 7.0 | 12.0 | 0.00 | 0.00 | 0.00 | 54 | 1013.2 |
| 20260509163205 | 93 | 193 | 7.0 | 12.0 | 0.00 | 0.00 | 0.00 | 52 | 1013.2 |
| 20260509161703 | 93 | 203 | 9.0 | 13.0 | 0.00 | 0.00 | 0.00 | 52 | 1013.2 |
| 20260509161205 | 93 | 247 | 4.0 | 8.0 | 0.00 | 0.00 | 0.00 | 51 | 1013.2 |
| 20260509154203 | 97 | 224 | 7.0 | 10.0 | 0.00 | 0.00 | 0.00 | 50 | 1014.2 |
| 20260509153703 | 96 | 215 | 5.0 | 9.0 | 0.00 | 0.00 | 0.00 | 51 | 1014.2 |
| 20260509153204 | 96 | 152 | 2.0 | 12.0 | 0.00 | 0.00 | 0.00 | 51 | 1014.2 |
| 20260509151704 | 95 | 190 | 6.0 | 9.0 | 0.00 | 0.00 | 0.00 | 51 | 1014.2 |
| 20260509151203 | 95 | 241 | 7.0 | 12.0 | 0.00 | 0.00 | 0.00 | 51 | 1014.2 |
| 20260509150704 | 94 | 213 | 7.0 | 12.0 | 0.00 | 0.00 | 0.00 | 51 | 1014.2 |
| 20260509150204 | 94 | 222 | 8.0 | 12.0 | 0.00 | 0.00 | 0.00 | 51 | 1014.2 |
| 20260509144204 | 93 | 264 | 8.0 | 13.0 | 0.00 | 0.00 | 0.00 | 53 | 1014.2 |
| 20260509143205 | 92 | 233 | 7.0 | 10.0 | 0.00 | 0.00 | 0.00 | 60 | 1014.2 |
| 20260509141704 | 90 | 255 | 6.0 | 9.0 | 0.00 | 0.00 | 0.00 | 62 | 1014.2 |
| 20260509140704 | 89 | 251 | 6.0 | 8.0 | 0.00 | 0.00 | 0.00 | 65 | 1014.2 |
| 20260509140205 | 89 | 235 | 7.0 | 9.0 | 0.00 | 0.00 | 0.00 | 65 | 1014.2 |
| 20260509134704 | 88 | 250 | 5.0 | 8.0 | 0.00 | 0.00 | 0.00 | 69 | 1014.2 |
| 20260509134204 | 88 | 228 | 7.0 | 9.0 | 0.00 | 0.00 | 0.00 | 69 | 1014.2 |
| 20260509133704 | 88 | 233 | 6.0 | 9.0 | 0.00 | 0.00 | 0.00 | 68 | 1014.2 |
| 20260509133204 | 88 | 227 | 8.0 | 10.0 | 0.00 | 0.00 | 0.00 | 68 | 1014.2 |
| 20260509131704 | 89 | 244 | 5.0 | 9.0 | 0.00 | 0.00 | 0.00 | 65 | 1013.2 |
| 20260509131204 | 88 | 216 | 7.0 | 9.0 | 0.00 | 0.00 | 0.00 | 66 | 1013.2 |
| 20260509130704 | 88 | 255 | 6.0 | 8.0 | 0.00 | 0.00 | 0.00 | 69 | 1013.2 |
| 20260509124705 | 89 | 278 | 5.0 | 8.0 | 0.00 | 0.00 | 0.00 | 65 | 1013.2 |
| 20260509124205 | 91 | 253 | 4.0 | 6.0 | 0.00 | 0.00 | 0.00 | 66 | 1013.2 |
| 20260509123704 | 90 | 217 | 4.0 | 6.0 | 0.00 | 0.00 | 0.00 | 70 | 1013.2 |
| 20260509123204 | 87 | 205 | 3.0 | 8.0 | 0.00 | 0.00 | 0.00 | 79 | 1013.2 |
| 20260509121705 | 81 | 238 | 3.0 | 6.0 | 0.00 | 0.00 | 0.00 | 100 | 1013.2 |
| 20260509120704 | 80 | 229 | 2.0 | 3.0 | 0.00 | 0.00 | 0.00 | 100 | 1013.2 |
| 20260509120204 | 80 | 226 | 3.0 | 6.0 | 0.00 | 0.00 | 0.00 | 100 | 1013.2 |
| 20260509114704 | 79 | 204 | 2.0 | 6.0 | 0.00 | 0.00 | 0.00 | 100 | 1013.2 |
| 20260509114204 | 78 | 227 | 1.0 | 3.0 | 0.00 | 0.00 | 0.00 | 100 | 1013.2 |
| 20260509111705 | 78 | 200 | 0.0 | 0.0 | 0.00 | 0.00 | 0.00 | 100 | 1013.2 |
| 20260509111204 | 77 | 199 | 1.0 | 6.0 | 0.00 | 0.00 | 0.00 | 100 | 1013.2 |
| 20260509110704 | 76 | 204 | 2.0 | 6.0 | 0.00 | 0.00 | 0.00 | 100 | 1013.2 |
| 20260509110205 | 75 | 197 | 4.0 | 6.0 | 0.00 | 0.00 | 0.00 | 100 | 1013.2 |
| 20260509104704 | 73 | 202 | 3.0 | 6.0 | 0.00 | 0.00 | 0.00 | 100 | 1013.2 |
| 20260509103704 | 72 | 198 | 4.0 | 6.0 | 0.00 | 0.00 | 0.00 | 100 | 1013.2 |
| 20260509103204 | 72 | 190 | 3.0 | 6.0 | 0.00 | 0.00 | 0.00 | 100 | 1013.2 |
| 20260509101704 | 72 | 193 | 1.0 | 3.0 | 0.00 | 0.00 | 0.00 | 100 | 1013.2 |
| 20260509101205 | 72 | 191 | 1.0 | 3.0 | 0.00 | 0.00 | 0.00 | 100 | 1013.2 |
| 20260509100704 | 72 | 201 | 1.0 | 3.0 | 0.00 | 0.00 | 0.00 | 100 | 1013.2 |
| 20260509100204 | 72 | 188 | 0.0 | 0.0 | 0.00 | 0.00 | 0.00 | 100 | 1013.2 |
| 20260509094704 | 72 | 190 | 0.0 | 0.0 | 0.00 | 0.00 | 0.00 | 100 | 1013.2 |
| 20260509094204 | 72 | 190 | 0.0 | 0.0 | 0.00 | 0.00 | 0.00 | 100 | 1013.2 |
| 20260509093703 | 72 | 191 | 0.0 | 0.0 | 0.00 | 0.00 | 0.00 | 100 | 1013.2 |
| 20260509093204 | 72 | 191 | 0.0 | 0.0 | 0.00 | 0.00 | 0.00 | 100 | 1013.2 |
| 20260509091704 | 72 | 190 | 0.0 | 0.0 | 0.00 | 0.00 | 0.00 | 100 | 1013.2 |
| 20260509091205 | 72 | 190 | 0.0 | 0.0 | 0.00 | 0.00 | 0.00 | 100 | 1013.2 |
| 20260509090205 | 73 | 183 | 0.0 | 3.0 | 0.00 | 0.00 | 0.00 | 100 | 1013.2 |
| 20260509084706 | 73 | 236 | 0.0 | 3.0 | 0.00 | 0.00 | 0.00 | 100 | 1013.2 |
| 20260509084203 | 73 | 221 | 2.0 | 3.0 | 0.00 | 0.00 | 0.00 | 100 | 1013.2 |
| 20260509083705 | 73 | 214 | 2.0 | 3.0 | 0.00 | 0.00 | 0.00 | 100 | 1013.2 |
| 20260509083204 | 73 | 229 | 3.0 | 5.0 | 0.00 | 0.00 | 0.00 | 100 | 1013.2 |
| 20260509081205 | 73 | 224 | 2.0 | 3.0 | 0.00 | 0.00 | 0.00 | 100 | 1013.2 |
| 20260509080704 | 73 | 223 | 2.0 | 3.0 | 0.00 | 0.00 | 0.00 | 100 | 1013.2 |
| 20260509080205 | 73 | 205 | 2.0 | 6.0 | 0.00 | 0.00 | 0.00 | 100 | 1013.2 |
| 20260509074204 | 73 | 229 | 3.0 | 6.0 | 0.00 | 0.00 | 0.00 | 100 | 1013.2 |
| 20260509073704 | 73 | 217 | 3.0 | 6.0 | 0.00 | 0.00 | 0.00 | 100 | 1013.2 |
| 20260509071704 | 73 | 210 | 2.0 | 3.0 | 0.00 | 0.00 | 0.00 | 100 | 1013.2 |
| 20260509071204 | 73 | 222 | 3.0 | 5.0 | 0.00 | 0.00 | 0.00 | 100 | 1013.2 |
| 20260509070704 | 73 | 218 | 3.0 | 5.0 | 0.00 | 0.00 | 0.00 | 100 | 1013.2 |
| 20260509070204 | 73 | 226 | 3.0 | 7.0 | 0.00 | 0.00 | 0.00 | 100 | 1013.2 |
| 20260509064705 | 73 | 245 | 3.0 | 6.0 | 0.00 | 0.00 | 0.00 | 100 | 1013.2 |
| 20260509064204 | 73 | 231 | 3.0 | 6.0 | 0.00 | 0.00 | 0.00 | 100 | 1013.2 |
| 20260509063704 | 73 | 228 | 3.0 | 6.0 | 0.00 | 0.00 | 0.00 | 100 | 1013.2 |
| 20260509063204 | 73 | 235 | 3.0 | 6.0 | 0.00 | 0.00 | 0.00 | 100 | 1013.2 |
| 20260509061703 | 74 | 241 | 3.0 | 6.0 | 0.00 | 0.00 | 0.00 | 100 | 1013.2 |
| 20260509060704 | 74 | 257 | 5.0 | 6.0 | 0.00 | 0.00 | 0.00 | 100 | 1013.2 |
| 20260509060204 | 74 | 255 | 5.0 | 8.0 | 0.00 | 0.00 | 0.00 | 100 | 1013.2 |
| 20260509054704 | 74 | 272 | 4.0 | 6.0 | 0.00 | 0.00 | 0.00 | 100 | 1013.2 |
| 20260509054204 | 74 | 259 | 3.0 | 6.0 | 0.00 | 0.00 | 0.00 | 100 | 1013.2 |
| 20260509053704 | 74 | 278 | 4.0 | 7.0 | 0.00 | 0.00 | 0.00 | 100 | 1013.2 |
| 20260509051704 | 74 | 205 | 2.0 | 3.0 | 0.00 | 0.00 | 0.00 | 100 | 1014.2 |
| 20260509050705 | 75 | 225 | 2.0 | 3.0 | 0.00 | 0.00 | 0.00 | 100 | 1014.2 |
| 20260509044704 | 75 | 213 | 2.0 | 3.0 | 0.00 | 0.00 | 0.00 | 100 | 1014.2 |
| 20260509044206 | 75 | 180 | 3.0 | 6.0 | 0.00 | 0.00 | 0.00 | 100 | 1014.2 |
| 20260509043204 | 76 | 205 | 3.0 | 7.0 | 0.00 | 0.00 | 0.00 | 100 | 1014.2 |
| 20260509041704 | 76 | 192 | 2.0 | 6.0 | 0.00 | 0.00 | 0.00 | 100 | 1014.2 |
| 20260509041204 | 76 | 185 | 3.0 | 6.0 | 0.00 | 0.00 | 0.00 | 100 | 1014.2 |
| 20260509040705 | 76 | 166 | 3.0 | 6.0 | 0.00 | 0.00 | 0.00 | 100 | 1014.2 |
| 20260509040205 | 76 | 178 | 4.0 | 8.0 | 0.00 | 0.00 | 0.00 | 100 | 1014.2 |
| 20260509034704 | 76 | 151 | 6.0 | 8.0 | 0.00 | 0.00 | 0.00 | 100 | 1014.2 |
| 20260509034205 | 76 | 160 | 4.0 | 7.0 | 0.00 | 0.00 | 0.00 | 100 | 1014.2 |
| 20260509033704 | 76 | 161 | 5.0 | 6.0 | 0.00 | 0.00 | 0.00 | 99 | 1014.2 |
| 20260509033205 | 76 | 154 | 3.0 | 6.0 | 0.00 | 0.00 | 0.00 | 99 | 1014.2 |
| 20260509031704 | 76 | 165 | 3.0 | 6.0 | 0.00 | 0.00 | 0.00 | 98 | 1014.2 |
| 20260509031204 | 76 | 148 | 1.0 | 3.0 | 0.00 | 0.00 | 0.00 | 97 | 1014.2 |
| 20260509030704 | 76 | 161 | 2.0 | 3.0 | 0.00 | 0.00 | 0.00 | 97 | 1014.2 |
| 20260509024704 | 76 | 137 | 0.0 | 0.0 | 0.00 | 0.00 | 0.00 | 96 | 1014.2 |
| 20260509024204 | 76 | 136 | 0.0 | 2.0 | 0.00 | 0.00 | 0.00 | 96 | 1013.3 |
| 20260509023704 | 76 | 126 | 0.0 | 2.0 | 0.00 | 0.00 | 0.00 | 95 | 1013.2 |
| 20260509023204 | 76 | 134 | 2.0 | 3.0 | 0.00 | 0.00 | 0.00 | 95 | 1013.2 |
| 20260509021704 | 77 | 148 | 2.0 | 3.0 | 0.00 | 0.00 | 0.00 | 94 | 1013.2 |
| 20260509021204 | 77 | 136 | 3.0 | 3.0 | 0.00 | 0.00 | 0.00 | 94 | 1013.2 |
| 20260509020203 | 77 | 145 | 2.0 | 3.0 | 0.00 | 0.00 | 0.00 | 93 | 1013.2 |
| 20260509014204 | 77 | 152 | 3.0 | 3.0 | 0.00 | 0.00 | 0.00 | 92 | 1013.2 |
| 20260509013704 | 78 | 127 | 2.0 | 3.0 | 0.00 | 0.00 | 0.00 | 91 | 1013.2 |
| 20260509013204 | 78 | 140 | 2.0 | 3.0 | 0.00 | 0.00 | 0.00 | 90 | 1013.2 |
| 20260509011705 | 78 | 141 | 3.0 | 3.0 | 0.00 | 0.00 | 0.00 | 90 | 1013.2 |
| 20260509011205 | 78 | 151 | 2.0 | 3.0 | 0.00 | 0.00 | 0.00 | 90 | 1013.2 |
| 20260509010704 | 78 | 141 | 3.0 | 5.0 | 0.00 | 0.00 | 0.00 | 89 | 1013.2 |
| 20260509010205 | 78 | 147 | 1.0 | 3.0 | 0.00 | 0.00 | 0.00 | 89 | 1013.2 |
| 20260509004704 | 78 | 123 | 3.0 | 5.0 | 0.00 | 0.00 | 0.00 | 88 | 1013.2 |
| 20260509003704 | 79 | 120 | 2.0 | 3.0 | 0.00 | 0.00 | 0.00 | 87 | 1013.2 |
| 20260509003205 | 79 | 142 | 2.0 | 3.0 | 0.00 | 0.00 | 0.00 | 86 | 1013.2 |
| 20260509001705 | 79 | 125 | 2.0 | 3.0 | 0.00 | 0.00 | 0.00 | 85 | 1012.2 |
| 20260509000704 | 80 | 142 | 3.0 | 6.0 | 0.00 | 0.00 | 0.00 | 84 | 1012.2 |
| 20260509000205 | 80 | 127 | 4.0 | 6.0 | 0.00 | 0.00 | 0.00 | 83 | 1012.2 |
| 20260508234703 | 81 | 115 | 3.0 | 6.0 | 0.00 | 0.00 | 0.00 | 80 | 1012.2 |
| 20260508234204 | 81 | 131 | 3.0 | 6.0 | 0.00 | 0.00 | 0.00 | 78 | 1012.2 |
| 20260508233705 | 82 | 152 | 5.0 | 8.0 | 0.00 | 0.00 | 0.00 | 78 | 1012.2 |
| 20260508231704 | 82 | 118 | 3.0 | 9.0 | 0.00 | 0.00 | 0.00 | 77 | 1012.2 |
| 20260508230704 | 83 | 141 | 5.0 | 8.0 | 0.00 | 0.00 | 0.00 | 75 | 1012.2 |
| 20260508230205 | 83 | 112 | 5.0 | 10.0 | 0.00 | 0.00 | 0.00 | 75 | 1012.2 |
| 20260508224705 | 83 | 119 | 6.0 | 9.0 | 0.00 | 0.00 | 0.00 | 73 | 1011.2 |
| 20260508224204 | 83 | 94 | 7.0 | 9.0 | 0.00 | 0.00 | 0.00 | 74 | 1011.2 |
| 20260508223203 | 83 | 97 | 7.0 | 10.0 | 0.00 | 0.00 | 0.00 | 76 | 1011.2 |
| 20260508221704 | 84 | 116 | 7.0 | 10.0 | 0.00 | 0.00 | 0.00 | 74 | 1012.2 |
| 20260508221204 | 84 | 93 | 6.0 | 8.0 | 0.00 | 0.00 | 0.00 | 73 | 1012.2 |
| 20260508220204 | 85 | 97 | 7.0 | 10.0 | 0.00 | 0.00 | 0.00 | 70 | 1012.2 |
| 20260508214204 | 85 | 102 | 3.0 | 6.0 | 0.00 | 0.00 | 0.00 | 73 | 1012.2 |
| 20260508213705 | 85 | 103 | 7.0 | 8.0 | 0.00 | 0.00 | 0.00 | 71 | 1012.2 |
| 20260508213205 | 85 | 95 | 7.0 | 12.0 | 0.00 | 0.00 | 0.00 | 71 | 1012.2 |
| 20260508211704 | 86 | 120 | 6.0 | 9.0 | 0.00 | 0.00 | 0.00 | 68 | 1012.2 |
| 20260508210204 | 86 | 102 | 6.0 | 10.0 | 0.00 | 0.00 | 0.00 | 69 | 1012.2 |
| 20260508204203 | 86 | 117 | 7.0 | 9.0 | 0.00 | 0.00 | 0.00 | 70 | 1012.2 |
| 20260508203705 | 85 | 81 | 7.0 | 9.0 | 0.00 | 0.00 | 0.00 | 70 | 1012.2 |
| 20260508203204 | 85 | 102 | 6.0 | 13.0 | 0.00 | 0.00 | 0.00 | 71 | 1012.2 |
| 20260508201704 | 85 | 81 | 9.0 | 12.0 | 0.00 | 0.00 | 0.00 | 67 | 1012.2 |
| 20260508201205 | 85 | 90 | 8.0 | 13.0 | 0.00 | 0.00 | 0.00 | 69 | 1012.9 |
| 20260508200703 | 85 | 95 | 8.0 | 13.0 | 0.00 | 0.00 | 0.00 | 71 | 1013.2 |
| 20260508200204 | 85 | 74 | 8.0 | 12.0 | 0.00 | 0.00 | 0.00 | 68 | 1013.2 |
| 20260508194705 | 86 | 97 | 8.0 | 12.0 | 0.00 | 0.00 | 0.00 | 68 | 1013.2 |
| 20260508194204 | 86 | 66 | 8.0 | 10.0 | 0.00 | 0.00 | 0.00 | 68 | 1013.2 |
| 20260508193705 | 86 | 93 | 6.0 | 10.0 | 0.00 | 0.00 | 0.00 | 68 | 1013.2 |
| 20260508193204 | 86 | 93 | 7.0 | 12.0 | 0.00 | 0.00 | 0.00 | 68 | 1013.2 |
| 20260508191704 | 87 | 94 | 7.0 | 10.0 | 0.00 | 0.00 | 0.00 | 66 | 1013.2 |
| 20260508191204 | 87 | 81 | 7.0 | 10.0 | 0.00 | 0.00 | 0.00 | 65 | 1013.2 |
| 20260508190704 | 87 | 69 | 7.0 | 9.0 | 0.00 | 0.00 | 0.00 | 67 | 1013.2 |
| 20260508190204 | 87 | 104 | 7.0 | 10.0 | 0.00 | 0.00 | 0.00 | 66 | 1013.2 |
| 20260508184705 | 87 | 91 | 7.0 | 10.0 | 0.00 | 0.00 | 0.00 | 64 | 1013.2 |